User: anonymous   Login
Location: Camp at the Woods
(43.2055°N, 93.0905°W)
Time: 16:35:24
(UTC+00:00)
Language:

Cosmos 1933 - Orbit

View from above orbital plane
View from above orbital plane
View from above satellite
View from above satellite

Ground track
Ground track

The orbit data is extracted from the following two-line orbital elements,

1 18958U 88020A   24106.53383327  .00005775  00000-0  36102-3 0  9995
2 18958  82.5208 212.2885 0005742  63.4184 296.7633 15.09259132945393
Epoch (UTC): 15 April 2024 12:48:43
Eccentricity: 0.0005742
inclination: 82.5208°
perigee height: 534 km
apogee height: 542 km
right ascension of ascending node: 212.2885°
argument of perigee: 63.4184°
revolutions per day: 15.09259132
mean anomaly at epoch: 296.7633°
orbit number at epoch: 94539

The dashed part of the orbit path shows where the satellite is in the earth's shadow,  

DLR